DELTA 1 DEB, 7152

Orbit data source: Space-Track

DELTA 1 DEB, 7152 is space debris in SSO originally from a launch on Tue, 06 Nov 1973 UTC launched from the Air Force Western Test Range (AFWTR). Debris objects in space refer to the collection of defunct objects orbiting the Earth. Examples of debris include non-operational satellites, rocket bodies, and fragments generated from explosions, collisions, or faulty payload assembly.

Loading next visibility...
Identifier
7152, 1973-086DS
Orbit
SSO
Country
Flag of USUS
Related business
Manufacturer
Unknown
Mission
Spacecraft
Bus & Motor
Unknown
Mass
Unknown
Launch date (UTC)
1973-11-06 (52 years ago)
Launch vehicle
Unknown
Launch site
Air Force Western Test Range (AFWTR)
Object type
Payload
Rocket body
Debris
Shape & HBR
Unknown shape, 0.2 m
Radar Cross Section
Small (<0.1 m²)

Expand to show TLE details & history
Last TLE update: 2 days ago

TLE from 2 days ago
0 DELTA 1 DEB
1 07152U 73086DS  25292.15793223  .00000009  00000-0  45646-3 0  9998
2 07152 102.2606 250.0537 0080662 139.2723 239.6061 12.28538612329093
Epoch: 2025-10-19T03:47Z
TLE epoch observation values (Epoch: 2025-10-19T03:47:25.344Z)
Latitude
17.65238°
Longitude
161.37323°
Altitude
1,590.298 km
Speed
7.061 km/s
True Right ascension
16h 24m 25s
True Declination
17° 33' 49"
Sunlit
Object was in daylight at epoch
Visualization orbit readout
Latitude
Unknown
Longitude
Unknown
Altitude
Unknown
Speed
Unknown
Apparent Right ascension
Unknown
Apparent Declination
Unknown
Sunlit
N/A
Visualization observer readout
Local Sidereal Time
19:25:31
Azimuth
Unknown
Elevation
Unknown
Doppler factor
Unknown
Orbital elements
Apogee altitude
1,617.147 km
Perigee altitude
1,489.196 km
Semi-major axis
7,931.309 km
Eccentricity
0.00807
Inclination
102.2606°
RAAN
250.0537°
Arg. of periapsis
139.2723°
True anomaly
238.81289°
Mean anomaly
239.6061°
Eccentric anomaly
239.20909°
Mean motion
3.07274 °/min
Orbital period
117.16 mins
BSTAR
0.00045646
Loading maneuver chart data...
Computing Atmospheric mass density...
Loading historical data...
Loading historical data...
Loading historical data...
Loading historical data...
Loading historical data...
Loading historical data...
Loading historical data...

Documentation

Showing up to 5 results
|